TimeBST,TemperatureF,Dew PointF,Humidity,Sea Level PressureIn,VisibilityMPH,Wind Direction,Wind SpeedMPH,Gust SpeedMPH,PrecipitationIn,Events,Conditions,WindDirDegrees,DateUTC
12:20 AM,57.2,57.2,100,30.21,1.1,ENE,5.8,-,N/A,,Light Drizzle,60,2012-10-22 23:20:00
12:50 AM,57,56,97,30.23,1,NNE,5.8,,,Rain,Light Drizzle,30,2012-10-22 23:50:00
12:50 AM,57.2,57.2,100,30.21,1.1,ENE,4.6,-,N/A,,Light Drizzle,60,2012-10-22 23:50:00
1:20 AM,57.2,55.4,94,30.21,1.1,NE,4.6,-,N/A,,Overcast,50,2012-10-23 00:20:00
1:50 AM,57.2,55.4,94,30.21,1.6,Variable,3.5,-,N/A,,Overcast,0,2012-10-23 00:50:00
2:20 AM,57.2,55.4,94,30.21,1.1,North,3.5,-,N/A,,Mostly Cloudy,10,2012-10-23 01:20:00
2:50 AM,57.2,55.4,94,30.21,1.5,NE,4.6,-,N/A,,Mostly Cloudy,40,2012-10-23 01:50:00
3:20 AM,57.2,55.4,94,30.21,1.7,Variable,3.5,-,N/A,,Mostly Cloudy,0,2012-10-23 02:20:00
3:50 AM,56,56,98,30.22,2,NNE,5.8,,,,Mist,30,2012-10-23 02:50:00
3:50 AM,57.2,55.4,94,30.21,1.8,NNE,4.6,-,N/A,,Mostly Cloudy,20,2012-10-23 02:50:00
4:20 AM,55.4,55.4,100,30.21,1.9,NNE,4.6,-,N/A,,Mostly Cloudy,30,2012-10-23 03:20:00
4:50 AM,55.4,55.4,100,30.21,1.9,ENE,4.6,-,N/A,,Mostly Cloudy,60,2012-10-23 03:50:00
5:20 AM,55.4,55.4,100,30.21,1.7,NNE,4.6,-,N/A,,Mostly Cloudy,30,2012-10-23 04:20:00
5:50 AM,55.4,55.4,100,30.21,1.4,NE,4.6,-,N/A,,Mostly Cloudy,40,2012-10-23 04:50:00
6:20 AM,55.4,53.6,94,30.21,1.4,NNE,4.6,-,N/A,,Mostly Cloudy,30,2012-10-23 05:20:00
6:50 AM,54,54,99,30.23,2,North,4.6,,,,Mist,10,2012-10-23 05:50:00
6:50 AM,55.4,53.6,94,30.21,1.2,Variable,3.5,-,N/A,,Mostly Cloudy,0,2012-10-23 05:50:00
7:20 AM,53.6,53.6,100,30.24,1.2,NNE,4.6,-,N/A,,Mostly Cloudy,20,2012-10-23 06:20:00
7:50 AM,53.6,53.6,100,30.24,1.1,North,4.6,-,N/A,,Mostly Cloudy,360,2012-10-23 06:50:00
8:20 AM,53.6,53.6,100,30.24,0.9,Variable,3.5,-,N/A,,Mostly Cloudy,0,2012-10-23 07:20:00
8:50 AM,53.6,53.6,100,30.24,0.9,ENE,4.6,-,N/A,,Mostly Cloudy,60,2012-10-23 07:50:00
9:20 AM,53.6,53.6,100,30.24,1.1,NNE,4.6,-,N/A,,Mostly Cloudy,20,2012-10-23 08:20:00
9:50 AM,54,53,95,30.25,2,North,4.6,,,Rain,Drizzle,0,2012-10-23 08:50:00
9:50 AM,53.6,53.6,100,30.24,1.1,ENE,4.6,-,N/A,,Mostly Cloudy,60,2012-10-23 08:50:00
10:20 AM,53.6,53.6,100,30.24,1.6,North,4.6,-,N/A,,Mostly Cloudy,360,2012-10-23 09:20:00
10:50 AM,53.6,53.6,100,30.24,1.6,North,4.6,-,N/A,,Mostly Cloudy,10,2012-10-23 09:50:00
11:20 AM,53.6,53.6,100,30.24,1.7,North,4.6,-,N/A,,Mostly Cloudy,350,2012-10-23 10:20:00
11:50 AM,53.6,53.6,100,30.27,1.6,NNW,4.6,-,N/A,,Mostly Cloudy,340,2012-10-23 10:50:00
12:20 PM,53.6,53.6,100,30.27,1.0,Variable,3.5,-,N/A,,Light Drizzle,0,2012-10-23 11:20:00
12:50 PM,55,53,92,30.27,3,NNW,3.5,,,Rain,Drizzle,340,2012-10-23 11:50:00
12:50 PM,53.6,53.6,100,30.27,1.7,Variable,3.5,-,N/A,,Mostly Cloudy,0,2012-10-23 11:50:00
1:20 PM,55.4,53.6,94,30.24,2.2,North,4.6,-,N/A,,Mostly Cloudy,10,2012-10-23 12:20:00
1:50 PM,55.4,53.6,94,30.24,-9999.0,NNE,4.6,-,N/A,,Mostly Cloudy,20,2012-10-23 12:50:00
2:20 PM,55.4,53.6,94,30.24,3.1,Variable,3.5,-,N/A,,Haze,0,2012-10-23 13:20:00
2:50 PM,55.4,53.6,94,30.24,2.5,North,4.6,-,N/A,,Haze,10,2012-10-23 13:50:00
3:20 PM,55.4,53.6,94,30.24,-9999.0,North,5.8,-,N/A,,Mostly Cloudy,360,2012-10-23 14:20:00
3:50 PM,56,54,93,30.23,3,NNE,4.6,,,,Light Haze,20,2012-10-23 14:50:00
3:50 PM,55.4,53.6,94,30.24,-9999.0,NNE,5.8,-,N/A,,Mostly Cloudy,30,2012-10-23 14:50:00
4:20 PM,55.4,53.6,94,30.24,-9999.0,NNE,4.6,-,N/A,,Haze,30,2012-10-23 15:20:00
4:50 PM,55.4,53.6,94,30.21,2.2,NNE,6.9,-,N/A,,Haze,30,2012-10-23 15:50:00
5:20 PM,57.2,53.6,88,30.21,2.2,NE,5.8,-,N/A,,Haze,40,2012-10-23 16:20:00
5:50 PM,57.2,55.4,94,30.21,2.2,NNE,4.6,-,N/A,,Haze,20,2012-10-23 16:50:00
6:20 PM,57.2,55.4,94,30.21,-9999.0,NNE,5.8,-,N/A,,Haze,30,2012-10-23 17:20:00
6:50 PM,56,55,94,30.23,2,NNE,5.8,,,,Light Haze,30,2012-10-23 17:50:00
6:50 PM,55.4,53.6,94,30.24,-9999.0,NE,5.8,-,N/A,,Haze,50,2012-10-23 17:50:00
7:20 PM,55.4,53.6,94,30.24,1.9,NNE,5.8,-,N/A,,Haze,30,2012-10-23 18:20:00
7:50 PM,55.4,53.6,94,30.24,1.9,NNE,5.8,-,N/A,,Haze,30,2012-10-23 18:50:00
8:20 PM,55.4,53.6,94,30.24,1.9,NNE,4.6,-,N/A,,Haze,30,2012-10-23 19:20:00
8:50 PM,55.4,53.6,94,30.24,1.9,NNE,5.8,-,N/A,,Haze,30,2012-10-23 19:50:00
9:20 PM,55.4,53.6,94,30.24,-9999.0,NE,6.9,-,N/A,,Haze,50,2012-10-23 20:20:00
9:50 PM,55,54,93,30.24,2,NE,5.8,,,Rain,Drizzle,50,2012-10-23 20:50:00
9:50 PM,55.4,53.6,94,30.24,2.2,NE,5.8,-,N/A,,Haze,50,2012-10-23 20:50:00
10:20 PM,55.4,53.6,94,30.24,-9999.0,NE,5.8,-,N/A,,Haze,50,2012-10-23 21:20:00
10:50 PM,55.4,53.6,94,30.21,-9999.0,Variable,3.5,-,N/A,,Haze,0,2012-10-23 21:50:00
11:20 PM,55.4,53.6,94,30.21,-9999.0,Variable,3.5,-,N/A,,Haze,0,2012-10-23 22:20:00
11:50 PM,55.4,53.6,94,30.21,-9999.0,North,4.6,-,N/A,,Haze,10,2012-10-23 22:50:00